Location: Casa Rossa
(45.2389°N, 12.2056°E)
Time: 23:44:06
(UTC+00:00)

SL-16 R/B - Pass Details

Date: 14 July 2020
Orbit: 985 x 1007 km, 99.5° (Epoch: 14 August)

Event Time Altitude Azimuth Distance (km) Brightness Sun altitude
Exits shadow 01:57:01 19° 222° (SW) 2,179 3.7 -13.9°
Maximum altitude 02:00:13 29° 266° (W) 1,756 3.5 -13.5°
Drops below altitude 10° 02:05:34 10° 324° (NW) 2,790 5.1 -12.9°
Sets 02:08:27 0° 336° (NNW) 3,746 5.9 -12.6°
